EW6576 Weather Reports


Display with metric or nautical units.
time (UTC)temp
F
wind
direction
speed
MPH
gust
MPH
rain 1hr
in
rain 24hr
in
rain mn
in
humidity
%
barometer
mb
20260831191602 84 51 8.0 10.0 0.00 0.00 0.00 60 1013.9
20260831191057 84 142 3.0 5.0 0.00 0.00 0.00 61 1014.0
20260831190552 84 135 6.0 9.0 0.00 0.00 0.00 61 1013.8
20260831190051 84 87 5.0 7.0 0.00 0.00 0.00 60 1013.8
20260831185547 84 62 4.0 6.0 0.00 0.00 0.00 61 1013.8
20260831185042 84 84 6.0 8.0 0.00 0.00 0.00 61 1014.1
20260831184536 83 119 3.0 3.0 0.00 0.00 0.00 62 1013.9
20260831184031 83 149 7.0 9.0 0.00 0.00 0.00 61 1013.9
20260831183530 82 85 2.0 2.0 0.00 0.00 0.00 62 1013.8
20260831183025 83 125 9.0 10.0 0.00 0.00 0.00 60 1013.8
20260831182519 84 122 7.0 9.0 0.00 0.00 0.00 58 1014.0
20260831182015 84 125 3.0 3.0 0.00 0.00 0.00 58 1013.7
20260831181510 84 102 4.0 6.0 0.00 0.00 0.00 57 1013.8
20260831181004 84 127 3.0 5.0 0.00 0.00 0.00 55 1013.9
20260831180459 84 148 2.0 3.0 0.00 0.00 0.00 56 1013.7
20260831175959 83 126 2.0 3.0 0.00 0.00 0.00 58 1014.0
20260831175455 82 3 3.0 3.0 0.00 0.00 0.00 60 1013.8
20260831174950 83 17 1.0 2.0 0.00 0.00 0.00 60 1013.8
20260831174446 81 154 2.0 2.0 0.00 0.00 0.00 62 1013.9
20260831173945 82 85 3.0 5.0 0.00 0.00 0.00 63 1014.0
20260831173444 81 10 1.0 1.0 0.00 0.00 0.00 64 1013.7
20260831172940 82 47 2.0 2.0 0.00 0.00 0.00 63 1013.9
20260831172435 82 20 2.0 3.0 0.00 0.00 0.00 64 1014.0
20260831171930 81 49 1.0 2.0 0.00 0.00 0.00 65 1013.8
20260831171426 81 109 1.0 2.0 0.00 0.00 0.00 66 1013.8
20260831170922 80 183 1.0 1.0 0.00 0.00 0.00 67 1013.5
20260831170418 81 69 2.0 3.0 0.00 0.00 0.00 66 1013.9
20260831165915 80 132 1.0 1.0 0.00 0.00 0.00 68 1013.7
20260831165411 79 133 3.0 5.0 0.00 0.00 0.00 70 1013.7
20260831164907 79 60 2.0 2.0 0.00 0.00 0.00 70 1013.7
20260831164403 78 55 2.0 2.0 0.00 0.00 0.00 71 1013.8
20260831163858 79 175 0.0 1.0 0.00 0.00 0.00 70 1013.9
20260831163354 78 167 0.0 0.0 0.00 0.00 0.00 73 1013.7
20260831162852 77 102 0.0 1.0 0.00 0.00 0.00 73 1013.9
20260831162348 77 110 1.0 1.0 0.00 0.00 0.00 74 1013.9
20260831161846 78 119 2.0 2.0 0.00 0.00 0.00 73 1013.7
20260831161343 77 31 1.0 2.0 0.00 0.00 0.00 73 1013.8
20260831160837 76 176 0.0 1.0 0.00 0.00 0.00 76 1013.8
20260831160332 77 32 3.0 3.0 0.00 0.00 0.00 74 1013.7
20260831155827 76 174 0.0 0.0 0.00 0.00 0.00 76 1013.8
20260831155327 76 186 0.0 0.0 0.00 0.00 0.00 76 1014.1
20260831154822 76 193 0.0 0.0 0.00 0.00 0.00 77 1013.9
20260831154319 75 183 0.0 0.0 0.00 0.00 0.00 78 1013.9
20260831153817 74 135 1.0 1.0 0.00 0.00 0.00 80 1013.8
20260831153313 73 111 0.0 0.0 0.00 0.00 0.00 82 1013.5
20260831152809 73 257 1.0 1.0 0.00 0.00 0.00 83 1013.9
20260831152306 73 188 1.0 1.0 0.00 0.00 0.00 83 1013.8
20260831151800 73 198 1.0 1.0 0.00 0.00 0.00 82 1013.8
20260831151259 72 216 1.0 2.0 0.00 0.00 0.00 84 1013.9
20260831150754 72 163 0.0 0.0 0.00 0.00 0.00 85 1013.7
20260831150250 72 197 1.0 1.0 0.00 0.00 0.00 86 1013.6
20260831145748 71 182 0.0 0.0 0.00 0.00 0.00 87 1013.6
20260831145245 71 205 1.0 2.0 0.00 0.00 0.00 87 1013.5
20260831144740 70 275 1.0 1.0 0.00 0.00 0.00 88 1013.6
20260831144239 70 157 0.0 0.0 0.00 0.00 0.00 89 1013.6
20260831143736 70 110 0.0 1.0 0.00 0.00 0.00 90 1013.7
20260831143231 70 113 1.0 1.0 0.00 0.00 0.00 90 1013.6
20260831142727 70 146 0.0 0.0 0.00 0.00 0.00 90 1013.4
20260831142222 69 160 0.0 0.0 0.00 0.00 0.00 90 1013.6
20260831141721 69 189 0.0 0.0 0.00 0.00 0.00 90 1013.4
20260831141217 69 124 1.0 1.0 0.00 0.00 0.00 91 1013.2
20260831140716 69 157 0.0 0.0 0.00 0.00 0.00 91 1013.1
20260831140211 69 180 0.0 0.0 0.00 0.00 0.00 91 1013.1
20260831135709 69 148 0.0 1.0 0.00 0.00 0.00 91 1013.0
20260831135204 69 180 0.0 0.0 0.00 0.00 0.00 91 1012.9
20260831134700 69 159 0.0 0.0 0.00 0.00 0.00 92 1012.9
20260831134155 69 138 0.0 1.0 0.00 0.00 0.00 91 1013.1
20260831133654 69 172 0.0 0.0 0.00 0.00 0.00 91 1012.7
20260831133144 69 188 0.0 0.0 0.00 0.00 0.00 91 1012.8
20260831132640 69 143 1.0 2.0 0.00 0.00 0.00 91 1012.8
20260831132139 69 181 0.0 0.0 0.00 0.00 0.00 91 1012.6
20260831131634 69 234 1.0 1.0 0.00 0.00 0.00 91 1012.5
20260831131130 69 76 0.0 0.0 0.00 0.00 0.00 91 1012.7
20260831130625 69 102 0.0 1.0 0.00 0.00 0.00 91 1012.5
20260831130121 69 160 0.0 0.0 0.00 0.00 0.00 91 1012.4
20260831125619 69 182 0.0 0.0 0.00 0.00 0.00 91 1012.7
20260831125115 69 164 0.0 0.0 0.00 0.00 0.00 91 1012.8
20260831124611 69 135 0.0 1.0 0.00 0.00 0.00 91 1012.6
20260831124107 69 152 0.0 0.0 0.00 0.00 0.00 92 1012.7
20260831123606 69 162 0.0 1.0 0.00 0.00 0.00 92 1012.7
20260831123100 69 187 0.0 0.0 0.00 0.00 0.00 92 1012.4
20260831122554 69 188 0.0 0.0 0.00 0.00 0.00 92 1012.5
20260831122051 69 188 0.0 0.0 0.00 0.00 0.00 92 1012.6
20260831121550 69 188 0.0 1.0 0.00 0.00 0.00 93 1012.6
20260831121046 69 185 1.0 1.0 0.00 0.00 0.00 93 1012.5
20260831120545 69 188 0.0 0.0 0.00 0.00 0.00 93 1012.5
20260831120041 69 162 0.0 1.0 0.00 0.00 0.00 94 1012.5
20260831115537 69 151 0.0 1.0 0.00 0.00 0.00 94 1012.6
20260831115032 69 139 2.0 2.0 0.00 0.00 0.00 94 1012.4
20260831114531 69 151 1.0 1.0 0.00 0.00 0.00 94 1012.5
20260831114026 69 133 1.0 1.0 0.00 0.00 0.00 94 1012.6
20260831113526 69 152 0.0 0.0 0.00 0.00 0.00 94 1012.5
20260831113022 69 136 0.0 0.0 0.00 0.00 0.00 94 1012.4
20260831112521 69 164 0.0 0.0 0.00 0.00 0.00 94 1012.6
20260831112016 69 173 0.0 0.0 0.00 0.00 0.00 94 1012.4
20260831111512 69 178 0.0 0.0 0.00 0.00 0.00 94 1012.6
20260831111007 69 157 0.0 0.0 0.00 0.00 0.00 94 1012.8
20260831110507 69 158 0.0 0.0 0.00 0.00 0.00 94 1012.6
20260831110002 69 151 1.0 2.0 0.00 0.00 0.00 94 1012.7
20260831105456 69 182 0.0 0.0 0.00 0.00 0.00 94 1012.8
20260831104951 69 182 0.0 0.0 0.00 0.00 0.00 94 1012.5
20260831104448 69 176 1.0 1.0 0.00 0.00 0.00 94 1012.9
20260831103943 69 173 0.0 0.0 0.00 0.00 0.00 94 1012.6
20260831103438 68 173 0.0 0.0 0.00 0.00 0.00 94 1012.7
20260831102934 69 163 0.0 0.0 0.00 0.00 0.00 94 1012.8
20260831102433 68 148 0.0 0.0 0.00 0.00 0.00 94 1012.8
20260831101928 68 148 0.0 1.0 0.00 0.00 0.00 95 1012.5
20260831101423 68 147 1.0 2.0 0.00 0.00 0.00 95 1012.9
20260831100920 68 151 1.0 1.0 0.00 0.00 0.00 95 1012.8
20260831100415 68 144 2.0 2.0 0.00 0.00 0.00 95 1012.6
20260831095910 68 128 2.0 2.0 0.00 0.00 0.00 95 1012.6
20260831095409 68 124 2.0 2.0 0.00 0.00 0.00 95 1012.7
20260831094904 68 132 3.0 3.0 0.00 0.00 0.00 95 1012.5
20260831094400 68 150 0.0 0.0 0.00 0.00 0.00 96 1012.8
20260831093856 68 155 1.0 1.0 0.00 0.00 0.00 96 1012.8
20260831093351 68 158 1.0 2.0 0.00 0.00 0.00 96 1012.6
20260831092848 68 138 2.0 2.0 0.00 0.00 0.00 97 1012.7
20260831092343 68 107 2.0 2.0 0.00 0.00 0.00 97 1012.7
20260831091838 68 126 2.0 2.0 0.00 0.00 0.00 97 1012.5
20260831091333 68 143 1.0 1.0 0.00 0.00 0.00 97 1012.7
20260831090828 67 132 0.0 0.0 0.00 0.00 0.00 98 1012.6
20260831090324 67 132 0.0 0.0 0.00 0.00 0.00 98 1012.5
20260831085820 67 132 0.0 0.0 0.00 0.00 0.00 98 1012.5
20260831085309 66 132 0.0 0.0 0.00 0.00 0.00 97 1012.7
20260831084809 66 132 0.0 0.0 0.00 0.00 0.00 97 1012.8
20260831084306 66 132 0.0 0.0 0.00 0.00 0.00 97 1012.9
20260831083802 66 132 0.0 0.0 0.00 0.00 0.00 97 1013.1
20260831083257 66 132 0.0 0.0 0.00 0.00 0.00 97 1012.7
20260831082756 65 132 0.0 0.0 0.00 0.00 0.00 97 1012.7
20260831082251 65 132 0.0 0.0 0.00 0.00 0.00 97 1012.9
20260831081746 65 132 0.0 0.0 0.00 0.00 0.00 97 1012.6
20260831081242 65 132 0.0 0.0 0.00 0.00 0.00 97 1012.8
20260831080737 65 132 0.0 0.0 0.00 0.00 0.00 97 1012.7
20260831080232 64 132 0.0 0.0 0.00 0.00 0.00 97 1012.9
20260831075728 64 132 0.0 0.0 0.00 0.00 0.00 97 1012.7
20260831075223 64 132 0.0 0.0 0.00 0.00 0.00 96 1012.9
20260831074722 64 132 0.0 0.0 0.00 0.00 0.00 96 1012.8
20260831074216 65 132 0.0 0.0 0.00 0.00 0.00 96 1012.8
20260831073712 65 132 0.0 0.0 0.00 0.00 0.00 96 1012.8
20260831073211 65 132 0.0 0.0 0.00 0.00 0.00 96 1013.0
20260831072706 66 132 0.0 0.0 0.00 0.00 0.00 96 1012.9
20260831072203 65 132 0.0 0.0 0.00 0.00 0.00 96 1013.1
20260831071702 65 132 0.0 0.0 0.00 0.00 0.00 96 1012.8
20260831071156 65 131 1.0 1.0 0.00 0.00 0.00 96 1013.3
20260831070651 65 132 0.0 1.0 0.00 0.00 0.00 96 1012.8
20260831070145 65 133 0.0 1.0 0.00 0.00 0.00 96 1012.9
20260831065644 65 136 0.0 0.0 0.00 0.00 0.00 95 1012.9
20260831065143 66 136 0.0 0.0 0.00 0.00 0.00 95 1012.8
20260831064638 65 133 0.0 0.0 0.00 0.00 0.00 95 1012.8
20260831064133 66 154 0.0 1.0 0.00 0.00 0.00 95 1013.0
20260831063630 66 155 0.0 0.0 0.00 0.00 0.00 95 1012.8
20260831063124 66 155 0.0 0.0 0.00 0.00 0.00 95 1013.0
20260831062619 66 155 0.0 0.0 0.00 0.00 0.00 95 1012.9
20260831062118 67 155 0.0 0.0 0.00 0.00 0.00 95 1012.7
20260831061616 67 155 0.0 0.0 0.00 0.00 0.00 95 1012.7
20260831061107 67 155 0.0 0.0 0.00 0.00 0.00 94 1012.9
20260831060603 67 155 0.0 0.0 0.00 0.00 0.00 94 1012.6
20260831055557 67 154 1.0 1.0 0.00 0.00 0.00 94 1012.5
20260831055052 66 138 0.0 0.0 0.00 0.00 0.00 94 1012.6
20260831054552 66 139 1.0 1.0 0.00 0.00 0.00 93 1012.6
20260831054051 67 144 0.0 0.0 0.00 0.00 0.00 93 1012.8
20260831053550 67 144 0.0 0.0 0.00 0.00 0.00 93 1012.7
20260831053045 68 139 1.0 2.0 0.00 0.00 0.00 92 1012.8
20260831052544 68 193 0.0 0.0 0.00 0.00 0.00 93 1012.7
20260831052043 68 157 0.0 0.0 0.00 0.00 0.00 93 1012.8
20260831051541 68 156 0.0 0.0 0.00 0.00 0.00 93 1012.9
20260831051036 68 155 0.0 0.0 0.00 0.00 0.00 92 1012.7
20260831050535 69 162 0.0 0.0 0.00 0.00 0.00 92 1012.7
20260831050034 69 162 0.0 0.0 0.00 0.00 0.00 92 1012.7
20260831045533 69 162 1.0 1.0 0.00 0.00 0.00 92 1012.9
20260831045029 69 173 0.0 0.0 0.00 0.00 0.00 92 1012.9
20260831044524 70 177 0.0 0.0 0.00 0.00 0.00 92 1012.7
20260831044019 70 151 1.0 1.0 0.00 0.00 0.00 92 1012.4
20260831043519 70 140 0.0 1.0 0.00 0.00 0.00 92 1012.4
20260831043015 70 151 0.0 1.0 0.00 0.00 0.00 91 1012.5
20260831042514 70 136 0.0 1.0 0.00 0.00 0.00 91 1012.5
20260831042009 70 144 1.0 2.0 0.00 0.00 0.00 91 1012.5
20260831041504 70 143 2.0 2.0 0.00 0.00 0.00 91 1012.4
20260831041004 70 151 3.0 5.0 0.00 0.00 0.00 91 1012.4
20260831040459 70 158 1.0 2.0 0.00 0.00 0.00 91 1012.3
20260831035955 71 74 5.0 6.0 0.00 0.00 0.00 91 1012.5
20260831035450 71 126 3.0 3.0 0.00 0.00 0.00 91 1012.2
20260831034945 71 127 1.0 1.0 0.00 0.00 0.00 91 1012.0
20260831034439 71 123 3.0 3.0 0.00 0.00 0.00 90 1011.9
20260831033934 71 177 1.0 2.0 0.00 0.00 0.00 90 1011.9
20260831033430 71 166 0.0 0.0 0.00 0.00 0.00 90 1012.0
20260831032925 71 153 1.0 1.0 0.00 0.00 0.00 90 1011.9
20260831032420 71 132 3.0 3.0 0.00 0.00 0.00 90 1011.8
20260831031915 71 153 3.0 3.0 0.00 0.00 0.00 89 1011.7
20260831031414 71 143 1.0 1.0 0.00 0.00 0.00 89 1011.6
20260831030909 71 104 4.0 5.0 0.00 0.00 0.00 89 1011.9
20260831030408 71 93 2.0 3.0 0.00 0.00 0.00 89 1011.5
20260831025907 72 119 4.0 5.0 0.00 0.00 0.00 88 1011.4
20260831025406 72 134 3.0 3.0 0.00 0.00 0.00 88 1011.6
20260831024902 72 116 4.0 7.0 0.00 0.00 0.00 87 1011.7
20260831024356 72 146 3.0 3.0 0.00 0.00 0.00 87 1011.5
20260831023855 73 130 2.0 2.0 0.00 0.00 0.00 85 1011.5
20260831023354 73 126 5.0 6.0 0.00 0.00 0.00 85 1011.7
20260831022849 73 166 1.0 2.0 0.00 0.00 0.00 84 1011.4
20260831022348 73 181 2.0 2.0 0.00 0.00 0.00 83 1011.2
20260831021842 74 177 2.0 3.0 0.00 0.00 0.00 82 1011.4
20260831021337 74 160 2.0 2.0 0.00 0.00 0.00 82 1011.3
20260831020833 74 154 1.0 2.0 0.00 0.00 0.00 81 1011.4
20260831020332 75 118 4.0 5.0 0.00 0.00 0.00 80 1011.3
20260831015828 75 133 3.0 3.0 0.00 0.00 0.00 79 1011.1
20260831015324 75 118 4.0 5.0 0.00 0.00 0.00 77 1011.2
20260831014823 75 167 2.0 2.0 0.00 0.00 0.00 77 1011.2
20260831014318 76 186 2.0 2.0 0.00 0.00 0.00 76 1011.0
20260831013814 76 160 5.0 7.0 0.00 0.00 0.00 75 1011.4
20260831013314 77 134 2.0 2.0 0.00 0.00 0.00 74 1011.1
20260831012809 78 139 2.0 3.0 0.00 0.00 0.00 73 1011.1
20260831012306 78 128 1.0 2.0 0.00 0.00 0.00 71 1010.7
20260831011803 79 106 4.0 5.0 0.00 0.00 0.00 71 1011.0
20260831011259 79 184 5.0 6.0 0.00 0.00 0.00 70 1011.0
20260831010754 79 199 3.0 3.0 0.00 0.00 0.00 70 1011.3
20260831010249 79 122 3.0 3.0 0.00 0.00 0.00 70 1011.2
20260831005745 80 133 4.0 5.0 0.00 0.00 0.00 69 1011.0
20260831005240 80 164 6.0 8.0 0.00 0.00 0.00 68 1011.0
20260831004735 80 88 5.0 7.0 0.00 0.00 0.00 68 1011.1
20260831004231 82 124 5.0 6.0 0.00 0.00 0.00 66 1011.1
20260831003726 82 170 5.0 7.0 0.00 0.00 0.00 66 1011.1
20260831003223 82 127 4.0 5.0 0.00 0.00 0.00 66 1011.1
20260831002721 82 131 2.0 2.0 0.00 0.00 0.00 64 1011.2
20260831002216 82 149 3.0 5.0 0.00 0.00 0.00 64 1011.0
20260831001712 82 126 2.0 3.0 0.00 0.00 0.00 63 1011.2
20260831001212 82 181 4.0 5.0 0.00 0.00 0.00 63 1011.3
20260831000709 82 117 5.0 6.0 0.00 0.00 0.00 62 1011.1
20260831000204 82 135 5.0 6.0 0.00 0.00 0.00 61 1010.9
20260830235703 82 96 4.0 8.0 0.00 0.00 0.00 61 1011.2
20260830235158 82 135 4.0 6.0 0.00 0.00 0.00 60 1010.9
20260830234653 83 202 3.0 5.0 0.00 0.00 0.00 60 1011.0
20260830234149 83 192 3.0 3.0 0.00 0.00 0.00 58 1011.0
20260830233644 83 186 3.0 3.0 0.00 0.00 0.00 57 1011.5
20260830233139 83 182 3.0 5.0 0.00 0.00 0.00 57 1011.2
20260830232635 84 120 3.0 5.0 0.00 0.00 0.00 56 1011.0
20260830232131 84 180 3.0 3.0 0.00 0.00 0.00 56 1011.1
20260830231627 84 100 3.0 3.0 0.00 0.00 0.00 57 1011.2
20260830231126 84 92 2.0 3.0 0.00 0.00 0.00 58 1011.0
20260830230622 84 94 5.0 6.0 0.00 0.00 0.00 58 1011.3
20260830230121 85 77 3.0 5.0 0.00 0.00 0.00 57 1011.1
20260830225617 85 334 3.0 3.0 0.00 0.00 0.00 56 1011.4
20260830225112 86 27 3.0 3.0 0.00 0.00 0.00 53 1011.1
20260830224610 86 149 1.0 1.0 0.00 0.00 0.00 54 1011.2
20260830224107 86 184 2.0 3.0 0.00 0.00 0.00 53 1011.3
20260830223603 85 131 5.0 6.0 0.00 0.00 0.00 55 1011.0
20260830223057 86 173 3.0 3.0 0.00 0.00 0.00 54 1011.1
20260830222551 86 179 5.0 7.0 0.00 0.00 0.00 54 1011.2
20260830222042 86 124 10.0 14.0 0.00 0.00 0.00 53 1011.1
20260830221538 86 111 4.0 7.0 0.00 0.00 0.00 54 1011.3
20260830221033 86 132 5.0 6.0 0.00 0.00 0.00 53 1011.5
20260830220533 87 140 5.0 7.0 0.00 0.00 0.00 52 1011.4
20260830220032 87 187 3.0 6.0 0.00 0.00 0.00 53 1011.5
20260830215526 85 232 1.0 2.0 0.00 0.00 0.00 55 1011.5
20260830215020 86 95 1.0 1.0 0.00 0.00 0.00 54 1011.8
20260830214515 86 157 3.0 3.0 0.00 0.00 0.00 55 1011.8
20260830214010 86 100 4.0 7.0 0.00 0.00 0.00 54 1011.8
20260830213505 87 156 6.0 7.0 0.00 0.00 0.00 55 1011.7
20260830213000 86 141 3.0 5.0 0.00 0.00 0.00 55 1011.8
20260830212456 86 157 1.0 2.0 0.00 0.00 0.00 56 1011.8
20260830211955 85 109 7.0 8.0 0.00 0.00 0.00 58 1011.9
20260830211450 85 156 3.0 5.0 0.00 0.00 0.00 58 1012.0
20260830210945 86 121 6.0 7.0 0.00 0.00 0.00 58 1012.2
20260830210439 86 139 5.0 7.0 0.00 0.00 0.00 60 1012.2
20260830205931 86 353 5.0 6.0 0.00 0.00 0.00 59 1012.1
20260830205430 86 51 2.0 2.0 0.00 0.00 0.00 58 1012.2
20260830204925 86 164 4.0 5.0 0.00 0.00 0.00 59 1012.2
20260830204424 86 103 6.0 7.0 0.00 0.00 0.00 60 1012.2
20260830203919 86 102 2.0 2.0 0.00 0.00 0.00 61 1012.1
20260830203416 86 137 5.0 7.0 0.00 0.00 0.00 60 1012.3
20260830202915 86 95 3.0 5.0 0.00 0.00 0.00 60 1012.3
20260830202410 86 128 5.0 9.0 0.00 0.00 0.00 59 1012.2
20260830201906 86 122 7.0 9.0 0.00 0.00 0.00 59 1012.3
20260830201400 86 127 8.0 9.0 0.00 0.00 0.00 60 1012.3
20260830200856 87 150 7.0 8.0 0.00 0.00 0.00 59 1012.3
20260830200355 86 109 3.0 5.0 0.00 0.00 0.00 60 1012.2
20260830195850 87 137 10.0 11.0 0.00 0.00 0.00 58 1012.0
20260830195349 87 92 3.0 5.0 0.00 0.00 0.00 60 1012.2
20260830194848 87 133 2.0 3.0 0.00 0.00 0.00 59 1012.3
20260830194342 86 155 5.0 9.0 0.00 0.00 0.00 59 1012.4
20260830193837 86 120 7.0 9.0 0.00 0.00 0.00 61 1012.1
20260830193331 87 93 5.0 7.0 0.00 0.00 0.00 60 1012.3
20260830192828 88 116 5.0 8.0 0.00 0.00 0.00 59 1012.5
20260830192327 88 145 4.0 7.0 0.00 0.00 0.00 59 1012.3